Swanton, VT

12:51 PM EST on February 28, 2017 (GMT -0500)
Franklin County State

Weather History for KFSO - May, 2013

Change the Weather History Date:

Saturday, May 11, 2013

  Actual Average (KPBG) Record (KPBG)
Temperature  
Mean Temperature 62 °F -  
Max Temperature 74 °F 65 °F 82 °F (1953)
Min Temperature 50 °F 43 °F 30 °F (1956)
Degree Days  
Heating Degree Days 4    
Growing Degree Days 12 (Base 50)    
Moisture  
Dew Point 54 °F    
Average Humidity 73    
Maximum Humidity 89    
Minimum Humidity 51    
Precipitation  
Precipitation 0.00 in - - ()
Sea Level Pressure  
Sea Level Pressure 29.66 in    
Wind  
Wind Speed 7 mph (SSW)    
Max Wind Speed 15 mph    
Max Gust Speed 25 mph    
Visibility 10 miles    
Events Rain    
Averages and records for this station are not official NWS values.
T = Trace of Precipitation, MM = Missing Value Source: NWS Daily Summary

Daily Weather History Graph

Daily Weather History Graph

Search for Another Location

Airport or City:

Trip Planner

Search our weather history database for the weather conditions in past years. The results will help you decide how hot, cold, wet, or windy it might be!

Date:

Astronomy

May. 11, 2013 Rise Set
Actual Time 5:27 AM EDT 8:10 PM EDT
Civil Twilight 4:54 AM EDT 8:44 PM EDT
Nautical Twilight 4:11 AM EDT 9:26 PM EDT
Astronomical Twilight 3:22 AM EDT 10:16 PM EDT
Moon 6:32 AM EDT (5/11) 9:49 PM EDT (5/11)
Length of Visible Light 15h 49m
Length of Day
14h 42m
Waxing Crescent, 3% of the Moon is Illuminated
May 11
Waxing Crescent
May 18
First Quarter
May 25
Full
May 31
Last Quarter
Jun 8
New

Hourly Weather History & Observations

Time (EDT) Temp. Dew Point Humidity Pressure Visibility Wind Dir Wind Speed Gust Speed Precip Events Conditions
12:15 AM 60.6 °F 54.9 °F 81% 29.76 in 10.0 mi South 3.5 mph - N/A   Mostly Cloudy
12:35 AM 61.3 °F 55.4 °F 81% 29.75 in 10.0 mi South 5.8 mph - N/A   Mostly Cloudy
12:55 AM 62.4 °F 54.7 °F 76% 29.74 in 10.0 mi South 8.1 mph - N/A Rain Light Rain
1:15 AM 65.5 °F 54.0 °F 66% 29.73 in 10.0 mi South 6.9 mph - N/A Rain Light Rain
1:35 AM 67.1 °F 54.3 °F 63% 29.73 in 10.0 mi South 5.8 mph - N/A Rain Rain
1:55 AM 63.5 °F 54.3 °F 72% 29.74 in 10.0 mi SSW 3.5 mph - N/A Rain Light Rain
2:15 AM 61.9 °F 55.4 °F 79% 29.74 in 10.0 mi South 5.8 mph - N/A Rain Light Rain
2:55 AM 60.8 °F 56.3 °F 85% 29.73 in 7.0 mi South 5.8 mph - N/A Rain Rain
3:15 AM 60.8 °F 56.5 °F 86% 29.71 in 7.0 mi SSE 4.6 mph - N/A Rain Light Rain
3:35 AM 60.8 °F 56.8 °F 87% 29.70 in 7.0 mi SSE 9.2 mph - N/A Rain Light Rain
3:55 AM 60.8 °F 57.2 °F 88% 29.70 in 7.0 mi South 10.4 mph 16.1 mph N/A Rain Rain
4:15 AM 60.8 °F 57.0 °F 87% 29.69 in 10.0 mi South 9.2 mph - N/A Rain Rain
4:35 AM 60.8 °F 57.0 °F 87% 29.68 in 10.0 mi South 8.1 mph - N/A Rain Rain
4:55 AM 61.0 °F 57.2 °F 87% 29.67 in 10.0 mi South 10.4 mph - N/A Rain Light Rain
5:15 AM 60.8 °F 57.0 °F 87% 29.66 in 7.0 mi SSE 9.2 mph - N/A Rain Light Rain
5:35 AM 60.8 °F 56.8 °F 87% 29.66 in 10.0 mi South 6.9 mph - N/A Rain Light Rain
5:55 AM 60.8 °F 57.2 °F 88% 29.65 in 10.0 mi South 6.9 mph - N/A   Drizzle
6:15 AM 61.0 °F 57.2 °F 87% 29.65 in 10.0 mi South 10.4 mph 16.1 mph N/A   Drizzle
6:35 AM 61.5 °F 57.4 °F 86% 29.64 in 10.0 mi SSE 10.4 mph 16.1 mph N/A   Light Drizzle
6:55 AM 61.9 °F 57.4 °F 85% 29.64 in 10.0 mi South 9.2 mph - N/A   Overcast
7:15 AM 61.9 °F 57.2 °F 85% 29.64 in 10.0 mi South 10.4 mph 17.3 mph N/A   Overcast
7:35 AM 61.9 °F 56.8 °F 84% 29.64 in 10.0 mi South 6.9 mph - N/A   Overcast
7:55 AM 61.9 °F 56.7 °F 83% 29.64 in 10.0 mi South 10.4 mph 16.1 mph N/A   Overcast
8:15 AM 62.1 °F 56.5 °F 82% 29.64 in 10.0 mi South 8.1 mph - N/A   Overcast
8:35 AM 61.9 °F 57.2 °F 85% 29.64 in 4.0 mi South 9.2 mph 16.1 mph N/A Rain Rain
8:55 AM 61.5 °F 57.6 °F 87% 29.65 in 3.0 mi South 10.4 mph - N/A   Drizzle
9:15 AM 61.3 °F 57.9 °F 89% 29.64 in 5.0 mi South 5.8 mph - N/A   Overcast
9:35 AM 64.4 °F 60.8 °F 88% 29.63 in 10.0 mi South 10.4 mph - N/A   Overcast
9:55 AM 64.4 °F 59.9 °F 85% 29.63 in 10.0 mi South 9.2 mph - N/A   Mostly Cloudy
10:15 AM 67.1 °F 60.8 °F 80% 29.62 in 10.0 mi South 8.1 mph - N/A   Scattered Clouds
10:35 AM 69.4 °F 60.6 °F 73% 29.61 in 10.0 mi South 8.1 mph - N/A   Scattered Clouds
10:55 AM 69.4 °F 59.0 °F 69% 29.61 in 10.0 mi South 9.2 mph 18.4 mph N/A   Mostly Cloudy
11:15 AM 69.4 °F 59.9 °F 72% 29.61 in 10.0 mi South 5.8 mph 16.1 mph N/A   Overcast
11:35 AM 72.7 °F 60.4 °F 65% 29.60 in 10.0 mi South 9.2 mph - N/A   Mostly Cloudy
11:55 AM 69.4 °F 58.1 °F 67% 29.60 in 10.0 mi South 5.8 mph - N/A   Mostly Cloudy
12:15 PM 71.8 °F 59.5 °F 65% 29.59 in 10.0 mi South 6.9 mph - N/A   Mostly Cloudy
12:35 PM 71.1 °F 58.1 °F 63% 29.59 in 10.0 mi South 9.2 mph 17.3 mph N/A   Mostly Cloudy
12:55 PM 70.7 °F 57.6 °F 63% 29.59 in 10.0 mi South 8.1 mph 19.6 mph N/A   Mostly Cloudy
1:15 PM 69.4 °F 57.2 °F 65% 29.59 in 10.0 mi South 6.9 mph 19.6 mph N/A   Overcast
1:35 PM 69.4 °F 59.7 °F 71% 29.59 in 7.0 mi SSW 6.9 mph 17.3 mph N/A Rain Heavy Rain
1:55 PM 67.1 °F 61.3 °F 82% 29.59 in 7.0 mi SSW 6.9 mph - N/A Rain Light Rain
2:15 PM 69.4 °F 63.3 °F 81% 29.59 in 10.0 mi SSW 5.8 mph - N/A   Mostly Cloudy
2:35 PM 69.4 °F 62.2 °F 78% 29.59 in 10.0 mi SSW 9.2 mph - N/A   Mostly Cloudy
2:55 PM 69.4 °F 61.5 °F 76% 29.59 in 10.0 mi WSW 9.2 mph - N/A   Overcast
3:15 PM 69.4 °F 59.4 °F 70% 29.59 in 10.0 mi WSW 8.1 mph 17.3 mph N/A   Scattered Clouds
3:35 PM 70.9 °F 54.7 °F 56% 29.59 in 10.0 mi SW 15.0 mph 25.3 mph N/A   Scattered Clouds
3:55 PM 69.4 °F 51.3 °F 52% 29.60 in 10.0 mi WSW 6.9 mph 17.3 mph N/A   Clear
4:15 PM 69.4 °F 51.4 °F 53% 29.61 in 10.0 mi West 9.2 mph - N/A   Clear
4:35 PM 66.2 °F 50.4 °F 57% 29.63 in 10.0 mi West 5.8 mph - N/A   Mostly Cloudy
4:55 PM 64.4 °F 48.2 °F 56% 29.62 in 10.0 mi West 5.8 mph 16.1 mph N/A   Mostly Cloudy
5:15 PM 64.9 °F 48.6 °F 55% 29.63 in 10.0 mi West 5.8 mph - N/A   Scattered Clouds
5:35 PM 65.3 °F 46.9 °F 51% 29.64 in 10.0 mi West 9.2 mph 16.1 mph N/A   Mostly Cloudy
5:55 PM 61.9 °F 46.4 °F 57% 29.64 in 10.0 mi WNW 8.1 mph - N/A   Scattered Clouds
6:15 PM 60.8 °F 45.7 °F 57% 29.65 in 10.0 mi WNW 8.1 mph - N/A   Clear
6:35 PM 61.0 °F 45.7 °F 57% 29.66 in 10.0 mi WSW 5.8 mph - N/A   Clear
6:55 PM 60.8 °F 45.7 °F 57% 29.67 in 10.0 mi West 6.9 mph - N/A   Scattered Clouds
7:15 PM 60.4 °F 45.9 °F 59% 29.67 in 10.0 mi West 6.9 mph - N/A   Mostly Cloudy
7:35 PM 59.4 °F 45.5 °F 60% 29.68 in 10.0 mi West 4.6 mph - N/A   Scattered Clouds
7:55 PM 59.4 °F 47.7 °F 65% 29.68 in 10.0 mi NW 4.6 mph - N/A   Scattered Clouds
8:15 PM 56.8 °F 46.8 °F 69% 29.69 in 10.0 mi Calm Calm - N/A   Mostly Cloudy
8:35 PM 56.8 °F 47.3 °F 70% 29.69 in 10.0 mi Calm Calm - N/A   Scattered Clouds
8:55 PM 56.8 °F 47.7 °F 71% 29.70 in 10.0 mi Calm Calm - N/A   Mostly Cloudy
9:15 PM 56.7 °F 47.3 °F 71% 29.70 in 10.0 mi Calm Calm - N/A   Mostly Cloudy
9:35 PM 54.5 °F 45.0 °F 70% 29.71 in 10.0 mi Calm Calm - N/A   Scattered Clouds
9:55 PM 54.5 °F 45.0 °F 70% 29.71 in 10.0 mi Calm Calm - N/A   Mostly Cloudy
10:15 PM 54.5 °F 44.6 °F 69% 29.70 in 10.0 mi Calm Calm - N/A   Overcast
10:35 PM 54.5 °F 44.4 °F 69% 29.69 in 10.0 mi Calm Calm - N/A   Overcast
10:55 PM 54.5 °F 45.9 °F 73% 29.69 in 10.0 mi Calm Calm - N/A   Scattered Clouds
11:15 PM 51.8 °F 45.1 °F 78% 29.70 in 10.0 mi SSE 3.5 mph - N/A   Clear
11:35 PM 51.3 °F 45.3 °F 80% 29.70 in 10.0 mi Calm Calm - N/A   Clear
11:55 PM 50.0 °F 44.1 °F 80% 29.70 in 10.0 mi Calm Calm - N/A   Clear